GFSSW_700_rhum_021.txt.gz
RH
30 29 27 26 23 17 11 9 9 11 15 17 14 13 13 13 13 7 3 6 4 4 7 12 15 17 20 21 24 52 52 48 51 59 60 63 59 44 50 62 65 66 62 58 49
31 29 28 27 26 25 22 16 10 8 9 13 15 15 13 12 13 11 11 4 2 3 7 13 19 19 20 22 24 43 51 48 48 42 40 48 62 56 36 48 48 53 56 61 52
32 31 30 29 27 26 25 24 20 14 9 8 11 13 14 13 12 13 10 7 4 3 4 9 13 16 20 22 24 32 43 49 43 43 35 43 52 61 45 41 44 51 42 46 57
30 30 30 30 30 28 26 26 24 22 20 13 8 8 10 14 14 13 12 9 5 4 4 7 12 16 17 21 24 27 40 43 42 41 32 30 40 55 56 41 50 56 60 50 46
31 30 29 28 28 28 29 27 25 23 22 22 18 12 8 8 10 18 14 12 9 5 4 5 11 18 18 21 23 27 33 36 39 36 31 29 28 35 50 49 42 51 39 49 50
28 29 28 28 27 27 26 26 27 26 25 23 22 20 15 8 10 18 18 15 12 13 6 6 8 16 20 21 24 27 28 33 37 33 31 28 26 30 45 55 49 43 36 35 40
9 12 18 22 25 26 25 25 25 28 28 26 24 21 17 12 9 14 15 15 15 14 8 5 6 17 20 22 23 23 24 29 31 32 31 30 27 34 40 54 53 50 47 28 38
2 2 3 5 10 15 21 24 24 24 28 29 27 24 19 19 10 8 13 14 13 19 8 6 6 17 29 25 23 23 22 23 34 29 29 28 28 31 39 49 50 52 53 26 25
1 1 1 1 2 3 7 14 21 24 26 28 28 27 23 20 18 9 12 14 13 15 17 11 9 16 22 25 25 24 24 22 27 28 25 25 29 23 26 30 47 45 51 44 23
1 1 1 1 1 1 2 4 8 19 24 27 28 28 23 21 10 10 10 14 14 16 22 21 19 17 20 28 23 23 24 25 25 25 24 25 26 22 24 27 33 45 48 49 31
2 2 1 1 1 1 1 1 4 10 19 26 26 24 21 13 12 9 8 15 19 16 20 23 26 26 22 18 24 20 22 23 23 22 23 25 20 23 29 26 32 38 45 47 40
2 2 2 2 1 1 1 1 2 7 10 19 25 24 27 18 18 10 8 14 20 20 24 24 22 21 19 15 16 17 20 23 22 21 23 23 24 19 23 25 30 33 40 41 44
2 2 1 1 1 2 2 2 2 2 7 8 12 19 25 26 22 17 11 12 15 21 21 20 23 25 18 14 16 16 18 20 23 22 22 23 24 24 19 18 19 19 31 44 44
2 2 1 1 2 2 2 2 2 6 10 8 12 18 22 28 27 20 18 12 20 21 20 24 28 19 15 24 16 17 13 20 22 23 22 22 22 23 21 19 18 20 23 30 43
3 3 2 3 2 2 2 2 4 15 20 20 26 23 21 25 26 26 20 18 18 18 21 18 22 24 30 13 18 18 18 12 21 22 23 22 25 24 24 21 19 19 22 26 34
5 4 4 4 4 3 3 3 17 27 29 25 26 23 20 18 24 22 26 21 20 18 19 20 21 23 16 18 18 24 25 22 24 24 24 22 23 22 25 22 20 19 21 23 28
7 7 6 6 6 4 3 4 32 36 16 28 26 22 21 19 20 20 26 26 28 24 25 25 24 20 19 26 23 26 22 22 21 22 21 20 23 22 23 22 21 18 22 22 26
8 8 10 9 8 6 4 9 39 31 32 33 34 29 27 23 20 19 26 31 32 23 21 24 26 24 19 25 24 26 20 15 21 16 15 20 21 21 20 21 20 18 20 24 25
13 12 11 12 15 10 10 24 43 66 51 42 36 37 32 28 23 20 20 29 32 28 21 22 21 20 21 20 23 26 24 17 17 17 18 15 18 18 19 20 19 19 20 23 24
19 14 15 16 18 17 16 32 59 80 72 60 60 51 51 37 28 24 27 29 31 33 26 25 27 23 24 23 23 21 20 22 18 18 18 15 20 15 15 17 19 18 18 21 19
35 24 29 30 29 40 46 61 55 66 65 68 76 73 67 54 45 36 40 39 37 37 33 27 25 24 26 25 23 24 23 20 19 16 12 12 11 13 12 13 15 16 17 18 19
37 44 47 43 54 58 68 67 60 58 72 69 76 75 68 60 56 50 50 51 44 44 40 36 30 26 26 27 23 23 22 22 18 24 17 13 11 9 10 11 12 14 16 17 18
42 49 63 58 54 59 59 62 65 77 73 89 76 83 78 68 58 57 57 57 54 47 42 38 37 32 28 24 25 25 23 22 19 18 21 15 12 9 12 12 13 14 15 15 15
58 60 62 64 73 76 69 65 63 78 98 83 96 91 81 76 66 63 68 67 63 54 48 45 42 37 26 25 25 25 24 25 22 20 20 20 14 14 10 10 10 10 10 13 15
67 81 72 73 76 72 89 84 81 84 84 94 97 98 91 80 69 62 56 58 56 54 52 47 54 45 42 36 35 33 28 25 27 24 21 18 18 19 15 11 9 9 8 9 10
68 81 95 80 91 85 87 94 95 98 80 80 99 96 97 96 100 92 72 62 53 49 48 45 54 43 46 41 42 41 32 29 31 26 27 24 23 21 17 15 13 10 9 9 10
84 85 94 100 86 95 94 90 97 97 82 88 93 94 91 91 89 88 83 73 60 53 46 43 47 47 43 43 42 38 32 34 31 31 27 24 23 18 15 15 14 14 13 11 9

GFSSW_700_rhum_024.txt.gz
RH
33 31 30 29 27 25 24 20 11 9 8 11 14 14 11 12 13 11 6 8 4 4 6 12 15 16 19 20 23 47 73 49 47 49 54 60 79 80 60 63 59 58 59 57 53
34 33 32 32 30 27 26 24 22 15 10 8 9 12 13 12 12 11 15 7 3 3 5 12 18 17 18 20 22 34 63 47 50 47 47 60 73 65 68 61 59 57 57 58 50
32 32 32 31 30 30 28 26 24 23 19 13 8 8 11 13 12 11 12 10 4 3 4 6 11 16 19 20 27 33 61 52 50 49 48 51 72 71 69 72 59 47 51 54 53
30 30 30 30 29 28 28 28 27 25 23 21 18 11 8 10 16 12 12 12 7 6 4 5 11 16 38 27 23 42 44 62 53 48 47 43 59 71 62 56 67 51 59 55 55
14 17 21 25 27 27 27 27 28 29 26 23 21 20 15 9 8 13 13 11 9 9 4 4 8 27 48 48 51 30 56 52 50 41 43 37 51 59 71 50 49 38 45 54 58
3 4 5 8 11 18 23 25 26 27 28 26 24 22 20 16 9 15 13 12 10 6 4 4 6 40 50 51 50 47 50 51 36 35 36 32 43 57 63 51 48 44 33 48 52
1 1 2 2 3 5 9 14 20 24 26 27 27 26 22 20 10 8 12 14 15 14 11 5 14 48 39 48 33 48 41 30 29 32 31 30 32 48 57 48 47 50 35 38 36
2 2 2 1 1 2 2 4 7 14 22 26 28 29 24 22 17 8 11 13 16 18 19 44 33 54 42 33 27 29 28 28 29 30 29 32 28 40 43 43 46 46 47 22 34
2 2 2 2 2 2 1 2 2 5 9 21 28 30 28 25 21 15 10 13 15 18 16 46 52 47 46 38 26 24 24 28 27 29 29 33 28 31 45 33 48 47 48 46 22
2 2 2 2 2 2 2 2 2 3 5 10 23 32 27 25 22 22 10 14 16 17 19 15 28 28 33 35 28 23 23 23 24 26 28 29 31 30 45 54 60 38 48 48 46
1 1 1 1 1 2 2 2 2 3 3 6 16 29 27 22 24 16 14 14 16 18 23 24 25 20 19 23 22 21 21 23 23 26 27 27 27 29 40 55 57 61 37 46 45
1 1 1 1 1 1 1 2 2 3 5 6 7 12 29 25 19 15 14 13 16 25 28 30 24 20 20 18 21 22 20 20 22 24 24 25 24 27 33 51 58 66 33 38 48
4 3 2 2 2 2 2 2 2 2 3 4 5 6 12 30 18 17 11 14 17 28 25 22 22 22 21 22 22 21 21 20 21 23 24 24 24 24 24 32 47 56 63 31 41
4 4 4 3 3 2 2 2 2 3 7 13 5 8 8 23 27 21 15 13 23 26 23 21 21 24 22 22 21 18 18 19 19 21 23 23 22 22 24 28 35 44 47 36 37
5 4 5 4 4 4 4 3 3 14 17 23 21 19 15 20 28 23 20 16 16 20 23 22 23 23 22 22 21 16 13 15 17 18 20 22 22 20 22 25 27 35 40 44 29
5 5 5 6 6 4 4 4 7 24 17 24 25 25 24 28 32 32 23 22 20 19 21 21 20 20 22 23 22 20 16 14 16 16 17 20 21 20 21 25 26 35 38 21 27
6 5 6 8 8 6 5 6 31 23 17 32 32 32 28 25 32 31 33 33 30 22 20 22 20 22 22 23 23 22 19 16 14 14 15 16 19 21 20 21 24 26 30 23 22
8 10 13 12 10 9 8 41 29 24 41 51 50 43 35 28 27 26 31 30 30 24 19 20 20 20 21 22 21 21 18 12 16 11 10 15 17 18 20 22 23 25 23 36 24
13 15 20 18 14 13 11 32 22 71 80 74 49 39 30 36 30 29 26 28 28 26 20 19 19 18 20 21 20 22 20 12 10 12 12 9 12 16 19 19 21 22 23 26 25
15 20 24 23 20 20 59 36 59 83 85 73 54 50 44 41 39 31 23 30 28 27 26 22 19 19 20 20 19 18 17 15 12 15 16 9 11 13 14 19 20 21 21 24 31
17 42 30 28 36 56 49 57 64 66 81 75 70 64 58 54 50 35 34 43 36 31 35 30 22 19 19 20 18 19 18 16 13 11 11 11 8 10 13 18 19 20 22 22 28
22 54 36 34 61 66 62 76 74 67 72 76 74 64 64 65 56 49 52 58 51 60 48 33 27 24 20 19 18 18 18 17 14 15 13 11 8 11 12 14 19 18 21 21 24
29 31 39 49 72 76 78 78 76 77 88 100 94 80 79 74 64 62 68 70 56 61 50 46 30 24 22 22 22 19 18 17 16 13 15 13 10 13 11 15 22 23 23 23 25
50 79 76 92 92 94 92 77 75 84 88 88 88 85 90 58 66 68 64 66 60 64 52 50 36 26 20 21 22 21 20 18 18 16 13 15 12 14 13 18 19 18 17 17 17
67 97 63 86 92 100 98 84 83 91 87 80 96 97 98 84 60 63 75 68 62 57 55 52 40 42 33 36 30 22 21 20 19 18 16 14 15 15 16 17 19 19 17 10 12
78 75 91 70 92 100 96 89 85 97 96 90 94 93 96 97 99 98 95 71 67 69 60 53 47 49 41 39 37 31 30 24 22 20 20 18 18 17 18 20 18 20 12 10 10
86 95 91 85 98 100 96 100 100 100 96 95 99 98 90 97 94 99 98 87 82 78 63 60 46 50 36 36 35 34 31 30 28 26 25 24 23 23 23 23 22 10 9 8 6

GFSSW_700_rhum_030.txt.gz
RH
30 31 31 30 30 29 29 29 27 25 22 19 12 8 8 12 13 10 8 10 7 2 3 8 16 18 19 84 45 88 95 85 66 62 45 46 55 60 69 70 80 82 66 55 70
16 18 22 24 27 28 28 28 28 27 25 22 20 14 8 8 11 8 11 12 8 2 2 8 17 19 40 78 81 79 81 57 60 56 54 46 46 54 60 64 77 75 55 58 61
5 6 7 10 13 16 20 25 27 26 26 26 23 21 16 9 7 7 11 11 8 3 2 5 13 44 73 72 64 63 66 52 45 42 41 46 42 49 50 60 78 61 50 54 50
3 3 3 4 5 7 8 11 17 24 25 26 27 24 20 17 15 18 8 9 9 6 3 4 53 63 69 59 55 51 62 58 55 42 32 44 51 41 47 66 72 57 53 49 44
3 3 3 3 4 5 5 6 8 11 18 23 25 26 24 19 14 11 9 9 10 8 3 4 52 62 63 55 49 44 47 51 53 35 32 32 57 47 50 55 70 74 58 96 78
4 4 5 5 5 4 4 4 5 7 8 11 19 24 26 20 20 15 10 8 10 10 4 3 42 56 59 52 43 41 39 46 52 45 34 30 31 36 46 49 65 72 62 94 97
1 1 2 2 3 5 5 5 4 4 5 6 8 17 23 21 24 20 16 9 9 11 9 3 36 45 54 50 43 36 38 38 40 36 30 28 26 33 53 52 58 72 69 92 93
1 1 1 1 1 1 2 4 5 5 4 4 5 7 17 21 28 23 18 14 10 10 10 26 34 37 42 47 41 36 33 36 37 36 30 27 24 32 42 53 65 74 77 84 91
2 2 2 2 1 1 1 1 2 4 5 4 4 6 11 17 22 25 24 14 10 15 12 33 33 34 36 42 42 35 31 32 33 32 29 25 24 26 47 54 64 69 78 84 87
2 3 3 3 3 2 1 1 1 1 2 3 3 5 9 15 23 26 26 20 34 44 46 42 38 32 34 35 39 32 29 27 30 30 27 24 24 31 39 56 58 64 69 78 81
4 5 6 6 5 4 3 2 4 2 2 5 30 6 33 32 29 24 28 24 34 44 46 46 41 35 30 32 32 30 25 21 21 23 25 23 25 31 40 59 65 59 66 70 77
8 9 8 8 6 5 4 5 3 4 4 3 4 7 10 24 34 30 29 27 35 42 46 44 41 34 31 30 31 30 25 20 17 18 19 23 22 28 35 39 50 54 72 68 72
11 10 9 8 7 6 10 3 3 3 14 2 2 3 6 12 18 30 26 26 30 38 46 41 36 35 32 31 25 28 26 21 18 16 18 22 21 24 30 33 34 48 40 59 66
14 14 13 10 8 6 8 4 3 3 25 8 6 6 4 5 12 20 24 24 31 34 42 40 32 29 32 28 26 22 25 20 19 17 16 17 18 24 26 26 30 37 43 55 63
21 20 15 11 10 7 6 4 3 13 30 15 15 22 17 10 12 13 30 25 32 27 34 38 31 23 22 24 20 15 14 17 17 16 16 16 16 16 23 23 24 33 38 51 56
21 22 17 14 14 26 10 5 21 40 24 21 23 31 22 17 15 20 27 25 30 24 26 32 32 22 16 17 14 12 11 11 12 13 16 15 16 17 19 22 21 26 31 41 47
24 22 21 16 14 13 9 37 28 30 18 24 40 39 36 27 17 18 28 29 23 25 24 27 30 27 17 15 14 13 12 12 13 13 14 14 16 17 17 21 21 21 24 31 42
28 25 25 20 38 14 43 35 30 24 42 44 38 37 37 32 26 19 22 28 20 21 21 22 21 24 16 14 15 13 12 13 20 14 11 10 13 14 15 17 22 21 22 26 34
28 30 60 59 34 47 46 31 56 54 54 41 35 33 42 45 43 28 21 24 24 20 22 19 19 19 17 14 14 15 13 12 10 9 9 8 9 11 13 15 17 17 20 22 26
40 39 62 59 28 51 41 28 42 44 39 35 38 35 48 48 57 56 31 20 23 21 20 20 17 16 17 16 15 14 14 13 11 17 15 8 9 10 10 13 15 18 18 20 24
44 61 54 48 45 45 32 30 36 36 36 41 37 37 47 86 80 77 56 29 30 24 22 19 18 15 16 16 16 14 15 14 12 10 12 13 8 8 8 11 14 15 17 20 24
53 75 56 50 40 31 32 37 42 44 46 40 35 36 70 89 94 96 95 96 53 44 33 22 17 17 18 16 16 14 15 15 15 14 10 10 10 9 10 10 13 16 16 20 21
64 76 60 51 40 38 37 39 36 57 52 40 40 47 57 74 91 98 98 95 83 56 50 37 25 20 22 17 16 16 15 15 15 12 12 12 10 12 12 14 15 16 18 19 21
76 86 76 47 54 53 47 42 50 57 61 52 39 54 58 75 81 97 87 80 71 64 48 47 41 26 22 20 17 16 15 15 15 14 13 11 13 15 14 14 14 17 19 19 20
92 98 98 90 76 71 59 63 83 67 54 46 55 78 61 64 80 74 84 84 89 72 54 48 44 33 24 21 18 16 16 15 14 14 14 11 11 16 16 18 18 19 20 20 20
87 98 81 74 96 77 62 78 74 58 49 49 53 62 49 51 80 88 96 89 95 72 64 52 45 41 33 26 24 21 16 15 14 13 13 12 11 16 19 20 24 24 24 25 28
78 96 95 78 100 92 78 72 63 68 67 56 59 52 46 50 77 66 63 60 80 75 61 60 54 46 39 36 29 24 19 16 14 13 13 13 13 16 18 19 21 22 23 24 26

GFSSW_700_rhum_033.txt.gz
RH
15 17 19 21 23 26 27 27 27 26 26 25 24 22 15 7 8 8 7 9 10 7 3 4 10 16 16 20 51 89 97 86 71 75 65 79 66 67 67 66 59 61 72 59 76
7 8 9 10 11 14 16 21 25 26 26 25 25 25 21 16 7 4 9 12 10 7 3 4 10 12 18 31 99 93 83 82 69 76 54 74 79 59 83 71 64 59 70 61 76
4 5 5 5 6 7 9 11 14 19 24 25 25 25 24 21 16 6 8 10 9 8 3 3 6 9 18 38 74 91 71 63 62 66 63 55 70 67 77 67 44 46 46 55 67
6 6 7 7 7 6 6 6 8 11 13 19 23 24 24 24 20 13 6 8 8 8 5 3 6 16 24 55 63 78 68 54 48 51 57 59 53 59 67 53 48 38 42 43 53
2 2 2 2 4 6 8 7 6 6 8 10 15 21 22 22 16 19 11 8 8 8 3 2 6 20 38 61 65 62 58 54 41 43 55 49 37 46 70 54 54 48 42 43 47
1 1 1 1 1 1 1 3 7 7 6 6 8 13 19 18 23 22 17 11 8 8 6 2 4 26 46 64 62 53 51 45 46 39 54 49 37 48 70 56 35 43 37 44 44
2 2 2 2 2 1 1 1 1 4 8 6 5 9 14 15 20 25 20 17 10 8 9 4 3 42 54 62 59 52 48 48 50 51 40 52 46 55 63 57 45 23 29 46 48
3 2 2 3 3 3 2 2 1 1 2 6 7 6 8 9 16 22 22 19 12 8 10 12 4 41 51 57 56 53 47 45 47 41 39 44 42 55 43 39 40 26 36 52 62
4 5 5 5 4 4 4 2 2 2 1 1 4 7 8 7 10 17 24 24 18 9 10 12 19 38 40 43 46 48 47 40 34 36 38 34 29 47 50 48 55 46 59 88 86
7 7 7 6 6 5 3 2 2 2 2 2 1 4 6 12 12 21 28 28 22 11 12 14 31 31 35 37 41 42 44 36 33 32 35 34 26 39 53 60 49 70 87 82 89
9 9 8 8 8 7 4 4 3 4 2 3 4 5 9 24 24 27 30 31 21 25 31 19 36 32 33 35 36 40 43 34 31 29 32 31 27 41 61 60 51 48 80 87 46
7 12 11 11 10 8 5 4 4 4 3 2 1 2 2 26 23 23 31 34 27 33 43 41 41 34 33 33 34 36 39 37 29 25 29 31 26 51 47 46 41 42 71 79 63
5 15 14 14 13 10 7 5 4 3 5 9 11 5 2 12 20 19 32 30 25 32 38 44 28 38 41 34 30 33 32 34 31 22 19 22 27 37 44 34 47 48 60 78 45
7 16 19 18 15 12 9 5 4 5 13 19 18 22 27 8 13 22 22 30 29 27 36 43 41 38 41 37 31 30 31 31 30 26 22 17 27 26 37 36 36 41 57 43 54
13 9 15 20 18 13 8 5 6 27 29 14 27 35 30 22 9 6 29 31 30 27 35 40 44 40 37 36 33 31 29 28 28 26 23 20 20 23 25 33 36 35 38 53 61
11 12 21 24 19 11 7 12 25 33 27 20 30 35 33 32 22 15 20 29 28 27 28 37 42 39 40 33 33 31 30 23 26 26 22 19 18 18 22 26 34 34 40 55 55
14 19 28 27 21 10 23 37 31 29 23 33 43 37 31 41 37 37 17 33 30 26 26 31 33 41 32 34 25 28 25 20 20 21 21 16 15 16 17 20 22 32 38 38 46
16 29 34 33 25 21 45 43 39 31 40 36 40 34 36 46 48 44 31 19 33 24 28 32 27 32 36 26 23 22 20 15 25 21 16 13 14 15 15 17 22 22 26 34 43
25 37 44 39 44 36 50 44 32 40 38 34 32 32 38 46 69 74 69 40 22 30 27 30 27 26 31 29 20 17 15 13 13 14 16 12 10 13 14 16 16 21 28 33 34
42 43 58 53 52 42 48 44 36 35 38 43 43 40 40 50 74 80 70 65 42 42 29 25 23 24 26 30 22 17 15 14 13 22 22 14 12 11 9 11 14 14 22 26 32
50 46 60 60 39 40 42 36 35 33 43 46 46 45 36 70 75 85 86 71 84 59 48 34 22 21 23 24 28 15 16 14 13 13 25 28 16 9 8 8 11 19 16 21 24
41 51 62 60 49 41 38 38 37 34 44 45 49 36 50 53 74 79 94 96 93 96 72 55 39 22 21 20 19 18 14 15 15 16 13 14 13 11 11 9 8 17 17 21 23
29 64 66 69 54 58 54 51 43 51 60 64 46 42 44 61 74 83 77 88 93 97 92 72 44 29 21 20 20 17 15 15 15 15 15 18 15 12 10 10 8 12 16 17 22
25 64 74 55 67 74 69 61 60 61 61 65 48 48 55 60 82 79 93 89 84 98 87 79 57 50 33 21 19 17 16 14 16 16 15 16 13 13 15 10 9 13 15 15 16
24 51 86 87 61 58 77 74 80 74 73 58 50 48 73 76 64 78 84 80 69 95 76 67 57 48 36 24 22 22 17 16 14 17 17 14 14 14 13 15 13 14 16 18 16
26 48 85 94 72 78 93 88 81 76 69 66 59 60 47 51 84 71 78 84 87 87 92 61 60 53 40 28 26 26 17 16 15 14 16 15 12 15 14 14 16 16 17 20 20
30 63 98 94 81 77 87 98 94 88 81 77 66 60 62 63 69 62 54 58 63 76 89 74 57 58 46 37 36 30 28 16 16 15 15 16 13 16 15 16 15 19 21 23 25